Location: Lake Arresoe
(56.0000°N, 12.5000°E)
Time: 16:52:59
(UTC+02:00)

Resurs 1-4 Rocket - Pass Details

Date: 25 July 2021
Orbit: 799 x 815 km, 98.6° (Epoch: 23 September)

Event Time Altitude Azimuth Distance (km) Brightness Sun altitude
Rises 02:07:14 0° 20° (NNE) 3,353 7.2 -13.6°
Reaches altitude 10° 02:09:48 10° 29° (NNE) 2,415 5.9 -13.5°
Maximum altitude 02:14:41 35° 95° (E) 1,285 3.2 -13.4°
Enters shadow 02:19:06 12° 159° (SSE) 2,248 3.9 -13.2°
